Weather History for KAAO - November, 2013

Change the Weather History Date:

Sunday, November 10, 2013

  Actual Average (KICT) Record (KICT)
Temperature  
Mean Temperature 51 °F 48 °F  
Max Temperature 63 °F 59 °F 77 °F (1927)
Min Temperature 39 °F 37 °F 15 °F (1950)
Degree Days  
Heating Degree Days 14 17  
Month to date heating degree days 148  
Since 1 July heating degree days 434  
Cooling Degree Days 0 0  
Month to date cooling degree days 0  
Year to date cooling degree days 1684  
Growing Degree Days 1 (Base 50)    
Moisture  
Dew Point 41 °F    
Average Humidity 70    
Maximum Humidity 89    
Minimum Humidity 44    
Precipitation  
Precipitation 0.00 in 0.06 in 1.17 in (2008)
Month to date precipitation 0.57  
Year to date precipitation 30.58  
Snow  
Snow 0.00 in 0.00 in 0.20 in (1995)
Month to date snowfall 0.1  
Since 1 July snowfall 0.2  
Since 1 September snowfall 0.2  
Snow Depth -    
Sea Level Pressure  
Sea Level Pressure 30.30 in    
Wind  
Wind Speed 7 mph (SE)    
Max Wind Speed 15 mph    
Max Gust Speed 20 mph    
Visibility 10 miles    
Events      
T = Trace of Precipitation, MM = Missing Value Source: NWS Daily Summary

Daily Weather History Graph

Daily Weather History Graph

Search for Another Location

Airport or City:

Trip Planner

Search our weather history database for the weather conditions in past years. The results will help you decide how hot, cold, wet, or windy it might be!

Date:

Astronomy

Nov. 10, 2013 Rise Set
Actual Time 7:03 AM CST 5:21 PM CST
Civil Twilight 6:36 AM CST 5:48 PM CST
Nautical Twilight 6:04 AM CST 6:20 PM CST
Astronomical Twilight 5:33 AM CST 6:51 PM CST
Moon 1:20 PM CST (11/10) No Moon Set
Length of Visible Light 11h 12m
Length of Day
10h 17m
First Quarter, 56% of the Moon is Illuminated
Nov 10
First Quarter
Nov 17
Full
Nov 25
Last Quarter
Dec 2
New
Dec 9
First Quarter

Hourly Weather History & Observations

Time (CST) Temp. Windchill Dew Point Humidity Pressure Visibility Wind Dir Wind Speed Gust Speed Precip Events Conditions
12:54 AM 43.0 °F 40.3 °F 37.9 °F 82% 30.30 in 10.0 mi NNE 4.6 mph - N/A   Clear
1:54 AM 42.1 °F 40.2 °F 37.9 °F 85% 30.30 in 10.0 mi NE 3.5 mph - N/A   Clear
2:54 AM 42.1 °F 40.2 °F 37.9 °F 85% 30.30 in 10.0 mi NE 3.5 mph - N/A   Clear
3:54 AM 41.0 °F 37.1 °F 37.9 °F 89% 30.31 in 10.0 mi NNE 5.8 mph - N/A   Clear
4:54 AM 39.9 °F 36.7 °F 37.0 °F 89% 30.33 in 10.0 mi NE 4.6 mph - N/A   Clear
5:54 AM 39.9 °F 34.5 °F 36.0 °F 86% 30.36 in 10.0 mi NE 8.1 mph - N/A   Clear
6:54 AM 42.1 °F 37.1 °F 36.0 °F 79% 30.36 in 10.0 mi ENE 8.1 mph - N/A   Scattered Clouds
7:54 AM 46.0 °F 40.6 °F 35.1 °F 66% 30.38 in 10.0 mi East 11.5 mph - N/A   Overcast
8:54 AM 50.0 °F - 33.1 °F 52% 30.38 in 10.0 mi East 12.7 mph - N/A   Mostly Cloudy
9:54 AM 55.0 °F - 35.1 °F 47% 30.38 in 10.0 mi ESE 11.5 mph - N/A   Clear
10:54 AM 57.0 °F - 36.0 °F 45% 30.38 in 10.0 mi SE 15.0 mph 19.6 mph N/A   Clear
11:54 AM 61.0 °F - 39.0 °F 44% 30.35 in 10.0 mi SE 10.4 mph 18.4 mph N/A   Clear
12:54 PM 62.1 °F - 41.0 °F 46% 30.31 in 10.0 mi SSE 13.8 mph - N/A   Partly Cloudy
1:54 PM 63.0 °F - 43.0 °F 48% 30.29 in 10.0 mi SE 13.8 mph - N/A   Overcast
2:54 PM 61.0 °F - 46.0 °F 58% 30.28 in 10.0 mi South 11.5 mph - N/A   Overcast
3:54 PM 61.0 °F - 46.9 °F 60% 30.27 in 10.0 mi South 10.4 mph - N/A   Mostly Cloudy
4:54 PM 59.0 °F - 48.0 °F 67% 30.26 in 10.0 mi South 9.2 mph - N/A   Overcast
5:54 PM 55.9 °F - 48.0 °F 75% 30.27 in 10.0 mi South 5.8 mph - N/A   Mostly Cloudy
6:54 PM 54.0 °F - 46.9 °F 77% 30.27 in 10.0 mi South 6.9 mph - N/A   Mostly Cloudy
7:54 PM 54.0 °F - 46.9 °F 77% 30.26 in 10.0 mi South 8.1 mph - N/A   Scattered Clouds
8:54 PM 51.1 °F - 46.9 °F 86% 30.25 in 10.0 mi South 6.9 mph - N/A   Clear
9:54 PM 54.0 °F - 46.9 °F 77% 30.25 in 10.0 mi South 6.9 mph - N/A   Overcast
10:54 PM 54.0 °F - 48.0 °F 80% 30.24 in 10.0 mi South 5.8 mph - N/A   Overcast
11:54 PM 55.0 °F - 46.9 °F 74% 30.23 in 10.0 mi SSW 10.4 mph - N/A   Overcast